This demonstration page uses our WeatherBlox Daily Observations layout. Learn more.

Left ArrowRight Arrow

39.08367, -84.50855

Hourly Observations for May 9, 2017

Temp ( °F °C ) Dew Point ( °F °C ) Humidity (%) Winds ( mph kmh ) Pressure ( in mb ) Visibility ( mi km ) Precip ( " mm )
12:53 am 00:53 Cloudy with Light Rain 52 11.1 52 11.1 100 100 SSE 3 6 30.01 1016 10 16 0.01 0.25
1:53 am 01:53 Cloudy 53 11.7 52 11.1 96 96 E 5 7 29.97 1015 10 16 N/A
2:53 am 02:53 Cloudy 53 11.7 53 11.7 100 100 NE 6 9 29.99 1016 10 16 N/A
3:53 am 03:53 Cloudy with Light Rain 53 11.7 52 11.1 96 96 NNE 5 7 29.99 1016 8 13 0.02 0.51
4:53 am 04:53 Cloudy 53 11.7 52 11.1 96 96 N N/A 29.97 1015 10 16 0.02 0.51
5:53 am 05:53 Cloudy with Light Rain 52 11.1 51 10.6 97 97 ENE 3 6 29.98 1015 6 10 0.06 1.52
6:53 am 06:53 Cloudy with Rain 51 10.6 51 10.6 100 100 S 3 6 29.98 1015 3 5 0.11 2.79
7:32 am 07:32 Cloudy with Light Rain 52 11 50 10 94 94 S 6 9 30.00 1016 5 8 N/A
7:53 am 07:53 Mostly Cloudy 51 10.6 50 10 96 96 N N/A 29.98 1015 10 16 0.06 1.52
8:44 am 08:44 Cloudy with Heavy Rain 50 10 50 10 100 100 N N/A 30.03 1017 2 3 N/A
8:53 am 08:53 Cloudy with Heavy Rain 50 10 50 10 100 100 SSW 3 6 30.02 1017 2 3 0.16 4.06
9:53 am 09:53 Cloudy with Rain 51 10.6 50 10 96 96 N N/A 30.03 1017 4 6 0.22 5.59
10:53 am 10:53 Cloudy with Heavy Rain 51 10.6 51 10.6 100 100 SE 6 9 30.01 1016 2 3 0.19 4.83
11:53 am 11:53 Cloudy with Mist and Fog 53 11.7 53 11.7 100 100 NE 6 9 29.97 1015 5 8 0.08 2.03
12:53 pm 12:53 Cloudy with Light Rain 54 12.2 53 11.7 97 97 ESE 3 6 29.98 1015 8 13 N/A
1:53 pm 13:53 Cloudy 56 13.3 54 12.2 93 93 E 5 7 29.97 1015 10 16 N/A
2:53 pm 14:53 Cloudy 57 13.9 55 12.8 93 93 ENE 5 7 29.97 1015 10 16 N/A
3:53 pm 15:53 Cloudy 57 13.9 55 12.8 93 93 ESE 3 6 29.96 1015 10 16 N/A
4:53 pm 16:53 Cloudy 58 14.4 56 13.3 93 93 NE 7 11 29.94 1014 9 14 N/A
5:53 pm 17:53 Cloudy 57 13.9 55 12.8 93 93 ENE 7 11 29.93 1014 9 14 N/A
6:51 pm 18:51 Mostly Cloudy 59 15 55 13 88 88 E 5 7 29.91 1013 10 16 N/A
6:53 pm 18:53 Mostly Cloudy 59 15 56 13.3 90 90 NE 6 9 29.92 1013 10 16 N/A
7:53 pm 19:53 Cloudy 58 14.4 56 13.3 93 93 N N/A 29.92 1013 10 16 N/A
8:00 pm 20:00 Cloudy 57 14 55 13 94 94 SE 3 6 29.91 1013 10 16 N/A
8:33 pm 20:33 Mostly Cloudy 57 13.9 57 13.9 100 100 N N/A 29.91 1013 8 13 N/A
8:53 pm 20:53 Cloudy 57 13.9 56 13.3 96 96 N N/A 29.93 1014 9 14 N/A
9:53 pm 21:53 Mostly Cloudy 55 12.8 55 12.8 100 100 N N/A 29.94 1014 7 11 N/A
10:29 pm 22:29 Cloudy with Mist and Fog 55 12.8 55 12.8 100 100 N N/A 29.94 1014 6 10 N/A
10:53 pm 22:53 Cloudy with Mist and Fog 56 13.3 55 12.8 97 97 SSE 5 7 29.95 1014 6 10 N/A
11:02 pm 23:02 Cloudy 56 13.3 56 13.3 100 100 N N/A 29.94 1014 7 11 N/A
11:53 pm 23:53 Cloudy 56 13.3 55 12.8 97 97 E 6 9 29.95 1014 8 13 N/A

Powered by AerisWeather